Simultaneous Nadir Overpasses (SNOs) Predictions

Prediction of SNOs between GOES-16 and METOP-B Satellite Orbit:

Table of predicted SNOs for the next 14.0 days since TLE Epoch: 2/5/2022
Index Date Time (GOES-16) GOES-16 Lat,Lon METOP-B Lat,Lon Distance(km) Time Diff (sec)
1 02/05/2022 14:24:46 0.01, -75.20 -0.25, -73.93 143.88 80
2 02/07/2022 02:46:27 -0.02, -75.18 -0.79, -78.53 382.05 80
3 02/08/2022 02:23:07 -0.01, -75.18 0.33, -73.54 187.03 80
4 02/09/2022 14:44:38 0.02, -75.21 0.68, -78.10 330.17 80
5 02/10/2022 14:21:19 0.01, -75.21 -0.43, -73.11 239.17 80
6 02/12/2022 02:42:59 -0.02, -75.20 -0.60, -77.71 286.04 80
7 02/13/2022 02:19:40 -0.01, -75.21 0.52, -72.71 283.56 80
8 02/14/2022 14:41:11 0.02, -75.24 0.49, -77.28 232.84 80
9 02/15/2022 14:17:52 0.02, -75.24 -0.63, -72.28 337.26 80
10 02/17/2022 02:39:32 -0.03, -75.24 -0.39, -76.88 186.72 80
11 02/18/2022 02:16:12 -0.03, -75.26 0.74, -71.89 383.69 80
